SCP
0 0 0 0 0 0 0 0 0 0 0 0 0 0 0 0 0 0 0 0 0 0 0 0 0 0 0 0 0 0 0 0 0 0 0 0 0 0 0 0 0 0 0 0
0 0 0 0 0 0 0 0 0 0 0 0 0 0 0 0 0 0 0 0 0 0 0 0 0 0 0 0 0 0 0 0 0 0 0 0 0 0 0 0 0 0 0 0
0 0 0 0 0 0 0 0 0 0 0 0 0 0 0 0 0 0 0 0 0 0 0 0 0 0 0 0 0 0 0 0 0 0 0 0 0 0 0 0 0 0 0 0
0 0 0 0 0 0 0 0 0 0 0 0 0 0 0 0 0 0 0 0 0 0 0 0 0 0 0 0 0 0 0 0 0 0 0 0 0 0 0 0 0 0 0 0
0 0 0 0 0 0 0 0 0 0 0 0 0 0 0 0 0 0 0 0 0 0 0 0 0 0 0 0 0 0 0 0 0 0 0 0 0 0 0 0 0 0 0 0
0 0 0 0 0 0 0 0 0 0 0 0 0 0 0 0 0 0 0 0 0 0 0 0 0 0 0 0 0 0 0 0 0 0 0 0 0 0 0 0 0 0 0 0
0 0 0 0 0 0 0 0 0 0 0 0 0 0 0 0 0 0 0 0 0 0 0 0 0 0 0 0 0 0 0 0 0 0 0 0 0 0 0 0 0 0 0 0
0 0 0 0 0 0 0 0 0 0 0 0 0 0 0 0 0 0 0 0 0 0 0 0 0 0 0 0 0 0 0 0 0 0 0 0 0 0 0 0 0 0 0 0
0 0 0 0 0 0 0 0 0 0 0 0 0 0 0 0 0 0 0 0 0 0 0 0 0 0 0 0 0 0 0 0 0 0 0 0 0 0 0 0 0 0 0 0
0 0 0 0 0 0 0 0 0 0 0 0 0 0 0 0 0 0 0 0 0 0 0 0 0 0 0 0 0 0 0 0 0 0 0 0 0 0 0 0 0 0 0 0
0 0 0 0 0 0 0 0 0 0 0 0 0 0 0 0 0 0 0 0 0 0 0 0 0 0 0 0 0 0 0 0 0 0 0 0 0 0 0 0 0 0 0 0
0 0 0 0 0 0 0 0 0 0 0 0 0 0 0 0 0 0 0 0 0 0 0 0 0 0 0 0 0 0 0 0 0 0 0 0 0 0 0 0 0 0 0 0
0 0 0 0 0 0 0 0 0 0 0 0 0 0 0 0 0 0 0 0 0 0 0 0 0 0 0 0 0 0 0 0 0 0 0 0 0 0 0 0 0 0 0 0
0 0 0 0 0 0 0 0 0 0 0 0 0 0 0 0 0 0 0 0 0 0 0 0 0 0 0 0 0 0 0 0 0 0 0 0 0 0 0 0 0 0 0 0
0 0 0 0 0 0 0 0 0 0 0 0 0 0 0 0 0 0 0 0 0 0 0 0 0 0 0 0 0 0 0 0 0 0 0 0 0 0 0 0 0 0 0 0
0 0 0 0 0 0 0 0 0 0 0 0 0 0 0 0 0 0 0 0 0 0 0 0 0 0 0 0 0 0 0 0 0 0 0 0 0 0 0 0 0 0 0 0
0 0 0 0 0 0 0 0 0 0 0 0 0 0 0 0 0 0 0 0 0 0 0 0 0 0 0 0 0 0 0 0 0 0 0 0 0 0 0 0 0 0 0 0
0 0 0 0 0 0 0 0 0 0 0 0 0 0 0 0 0 0 0 0 0 0 0 0 0 0 0 0 0 0 0 0 0 0 0 0 0 0 0 0 0 0 0 0
0 0 0 0 0 0 0 0 0 0 0 0 0 0 0 0 0 0 0 0 0 0 0 0 0 0 0 0 0 0 0 0 0 0 0 0 0 0 0 0 0 0 0 0
0 0 0 0 0 0 0 0 0 0 0 0 0 0 0 0 0 0 0 0 0 0 0 0 0 0 0 0 0 0 0 0 0 0 0 0 0 0 0 0 0 0 0 0
0 0 0 0 0 0 0 0 0 0 0 0 0 0 0 0 0 0 0 0 0 0 0 0 0 0 0 0 0 0 0 0 0 0 0 0 0 0 0 0 0 0 0 0
0 0 0 0 0 0 0 0 0 0 0 0 0 0 0 0 0 0 0 0 0 0 0 0 0 0 0 0 0 0 0 0 0 0 0 0 0 0 0 0 0 0 0 0
0 0 0 0 0 0 0 0 0 0 0 0 0 0 0 0 0 0 0 0 0 0 0 0 0 0 0 0 0 0 0 0 0 0 0 0 0 0 0 0 0 0 0 0
0 0 0 0 0 0 0 0 0 0 0 0 0 0 0 0 0 0 0 0 0 0 0 0 0 0 0 0 0 0 0 0 0 0 0 0 0 0 0 0 0 0 0 0
0 0 0 0 0 0 0 0 0 0 0 0 0 0 0 0 0 0 0 0 0 0 0 0 0 0 0 0 0 0 0 0 0 0 0 0 0 0 0 0 0 0 0 0
0 0 0 0 0 0 0 0 0 0 0 0 0 0 0 0 0 0 0 0 0 0 0 0 0 0 0 0 0 0 0 0 0 0 0 0 0 0 0 0 0 0 0 0
0 0 0 0 0 0 0 0 0 0 0 0 0 0 0 0 0 0 0 0 0 0 0 0 0 0 0 0 0 0 0 0 0 0 0 0 0 0 0 0 0 0 0 0
Wind_Speed
7 5 4 6 7 8 10 10 9 8 7 5 4 3 3 2 2 3 3 4 4 3 3 2 2 1 1 1 1 0 0 1 1 2 2 3 3 3 3 3 4 4 5 6
6 4 5 7 7 8 10 9 9 8 7 4 3 2 2 1 1 2 3 4 4 4 3 3 2 2 1 1 1 1 0 1 1 2 2 2 3 3 3 3 4 4 5 5
6 3 6 8 7 8 7 6 7 7 4 1 2 2 2 1 1 2 3 3 4 4 3 3 3 2 2 1 0 1 1 1 1 2 2 2 2 3 3 3 4 4 4 5
5 5 8 0 2 3 5 4 4 4 2 2 2 2 1 1 0 1 2 3 3 4 4 3 3 3 2 1 1 1 1 1 2 2 2 3 3 3 3 3 4 4 4 5
5 6 7 2 2 2 5 4 3 3 2 1 1 1 2 0 1 2 2 3 3 4 4 4 3 3 3 2 2 2 2 2 3 3 3 3 4 4 4 4 4 5 5 5
6 6 6 1 2 2 5 5 1 2 2 1 2 4 1 1 2 2 2 2 3 3 4 4 4 3 3 3 3 3 3 4 3 3 4 4 4 4 4 4 4 5 5 5
8 8 4 3 2 2 5 2 2 1 1 3 4 3 2 0 1 1 2 2 3 3 3 3 4 3 3 3 4 4 4 4 4 4 4 4 4 4 4 4 4 5 5 5
6 7 3 4 3 3 3 3 0 1 1 2 2 2 1 1 1 2 2 2 2 2 3 3 3 4 4 4 4 4 4 4 4 4 4 3 3 3 4 4 4 4 4 5
4 2 3 2 1 2 3 2 2 2 2 2 2 2 2 2 2 2 3 3 3 3 3 3 3 4 5 4 4 4 4 4 4 4 4 3 3 3 3 3 3 3 3 4
5 3 2 1 1 2 3 3 3 2 2 2 3 3 3 3 2 2 3 3 3 3 4 4 4 4 4 4 4 4 4 4 4 4 3 3 3 3 3 3 3 3 4 4
6 4 3 3 3 3 3 3 2 2 2 3 3 3 3 3 3 3 3 3 3 4 4 5 5 5 5 4 4 4 4 4 4 3 3 3 3 3 4 3 4 4 4 4
5 4 5 5 3 3 3 3 2 3 3 3 3 3 3 3 3 3 3 3 4 4 5 5 5 5 4 4 4 4 4 4 3 3 3 3 3 3 2 3 4 5 5 6
5 4 4 5 4 4 4 4 4 4 4 4 3 3 3 3 3 3 3 3 4 4 5 5 5 5 4 4 4 4 4 4 3 3 3 3 3 3 3 3 3 4 4 5
4 4 4 4 5 4 5 5 4 4 4 3 3 3 3 3 3 4 4 4 4 5 4 5 5 5 4 4 4 4 4 4 4 3 3 3 4 4 4 4 4 3 3 3
5 5 6 5 4 4 4 4 4 4 3 3 3 3 3 4 4 4 4 4 4 4 4 4 4 4 4 4 4 4 4 3 3 3 3 3 3 3 4 4 4 4 4 3
4 4 4 5 5 5 5 5 5 5 4 4 4 4 4 4 4 4 3 3 4 4 5 4 4 4 4 4 4 4 3 4 4 3 3 3 3 3 4 4 4 4 4 3
5 5 5 6 6 6 6 6 5 5 4 4 4 4 4 3 3 3 3 3 3 4 4 4 4 5 4 4 4 3 3 3 4 4 3 3 3 4 4 4 4 4 4 3
6 6 6 7 6 6 5 5 5 5 5 4 4 4 3 3 3 3 3 3 3 3 3 4 4 4 4 4 3 3 3 3 3 3 3 3 3 4 4 4 4 5 4 3
5 5 5 5 5 5 5 5 4 4 4 3 3 3 3 3 3 3 3 3 3 3 4 4 5 4 4 4 4 3 3 3 3 3 3 3 3 3 4 4 4 4 4 3
4 4 4 4 4 4 4 4 3 3 3 3 3 3 3 3 3 3 3 3 3 3 4 4 4 4 4 3 4 3 3 3 3 3 3 3 3 3 4 4 4 4 4 4
3 3 3 3 3 3 3 3 2 2 2 2 3 3 3 3 3 3 3 3 3 4 4 4 4 4 4 3 4 3 3 3 3 3 3 3 3 4 4 4 4 4 4 4
3 2 3 3 2 2 2 2 1 2 2 2 2 3 3 3 3 3 3 3 3 4 3 3 3 4 4 4 3 3 3 3 3 3 3 3 3 4 4 4 4 4 4 4
2 2 2 2 1 1 1 1 1 1 2 2 2 2 3 3 2 3 3 2 2 4 3 3 4 5 5 4 3 3 3 4 3 3 4 4 4 4 4 4 4 4 4 4
1 2 1 1 1 1 1 2 2 2 2 2 2 2 2 2 2 2 2 2 3 4 3 3 4 5 5 3 3 3 3 4 3 3 4 3 4 4 4 4 4 4 4 5
1 2 1 1 1 1 2 2 2 1 1 1 1 2 2 2 2 2 2 2 3 3 3 3 4 5 4 3 3 3 3 3 4 3 3 3 3 4 4 4 4 4 4 4
2 2 1 1 1 1 1 1 1 1 1 1 1 1 1 1 2 2 2 2 3 3 3 2 2 3 3 3 3 3 3 3 3 3 4 4 4 4 4 4 5 4 4 4
1 1 1 1 1 1 1 1 1 1 1 1 1 1 1 1 1 2 2 2 2 2 2 2 2 3 3 3 3 3 3 3 4 4 4 4 4 3 4 4 4 3 3 3
Wind_Direction
260 257 247 250 243 226 239 254 266 275 273 284 301 308 307 321 1 4 6 6 4 5 14 20 25 13 25 34 22 12 265 295 284 278 272 267 258 256 256 254 259 263 257 252
241 230 246 253 253 245 247 255 257 266 274 303 305 305 311 323 5 360 2 358 355 354 359 1 3 358 7 29 17 354 342 325 318 304 291 279 273 269 266 264 262 260 260 256
251 239 254 244 241 242 242 248 247 255 274 296 295 303 302 311 1 1 357 350 346 347 347 350 342 330 328 355 3 336 317 323 322 300 296 292 283 276 272 268 266 262 265 263
257 245 246 139 87 246 241 246 241 260 282 266 289 291 267 205 335 343 350 343 340 338 340 344 338 325 317 308 304 307 313 325 325 310 302 297 286 278 274 269 265 263 264 264
239 250 262 205 175 230 240 242 218 252 264 276 358 227 187 104 323 324 330 332 333 329 329 331 332 320 305 297 292 298 311 315 313 306 298 293 287 284 282 278 273 268 261 258
233 249 256 102 88 286 251 233 154 261 242 209 227 256 242 25 303 304 318 331 335 325 324 329 329 313 298 301 301 302 303 302 303 300 294 291 293 293 290 279 272 272 267 263
237 247 260 63 86 206 233 341 72 231 216 210 242 309 6 217 276 295 301 312 320 318 320 322 317 302 288 296 306 312 308 301 298 294 293 291 293 294 291 285 281 275 273 273
229 239 239 95 148 218 331 22 342 244 238 247 292 338 4 221 255 278 287 287 296 305 315 316 311 297 290 298 311 310 303 300 300 296 296 291 289 289 288 286 279 277 278 278
246 273 32 126 222 321 346 314 302 259 253 256 267 284 279 265 266 277 281 284 286 292 300 299 297 294 292 301 308 308 304 297 294 294 293 288 285 285 286 286 285 286 285 284
247 248 277 274 287 309 313 309 306 278 261 254 264 271 269 264 263 276 284 284 281 282 288 294 297 293 292 294 295 294 295 293 289 288 291 292 289 284 284 286 288 289 287 285
249 261 274 257 276 296 309 315 311 291 277 269 264 264 266 264 263 273 280 279 277 279 286 294 300 298 299 296 294 292 294 296 295 292 288 285 285 291 285 286 300 295 289 287
255 255 254 265 275 277 279 283 282 289 286 278 265 258 259 268 274 276 281 286 286 288 292 296 296 294 298 297 293 289 289 293 299 296 290 285 283 289 313 286 303 302 299 294
273 277 273 282 275 274 273 276 275 276 271 267 268 264 262 268 268 274 282 291 296 295 294 295 296 298 298 294 291 286 285 288 290 290 287 283 281 281 289 301 287 280 283 291
254 257 263 269 276 276 277 277 278 281 280 270 274 271 273 274 276 279 283 292 296 294 294 296 296 298 303 295 288 286 287 289 286 281 283 280 281 286 286 288 296 300 284 282
251 258 263 274 272 274 278 274 273 272 279 282 281 277 275 276 278 285 292 298 295 291 295 298 298 305 310 300 290 289 288 285 283 286 286 286 283 284 285 284 286 293 298 289
264 265 256 255 261 269 269 264 265 268 270 275 279 282 282 281 288 294 296 295 290 289 293 296 299 307 309 301 293 289 290 303 298 290 287 286 285 284 285 287 286 283 286 291
253 265 268 267 265 264 265 265 264 263 264 266 275 281 280 284 288 292 296 295 290 290 294 298 306 312 307 301 299 295 292 291 289 284 279 282 285 288 288 286 286 284 285 300
253 260 264 262 262 264 267 269 268 266 266 267 272 271 271 275 283 292 295 294 290 293 306 311 316 313 309 306 305 296 287 285 281 284 285 286 290 292 291 291 290 288 290 287
262 270 274 273 269 264 264 266 267 269 269 262 255 256 262 270 282 287 286 280 279 288 307 318 319 308 306 313 312 294 288 285 284 287 289 293 288 289 290 290 290 291 290 289
272 278 278 279 275 267 264 265 264 264 264 256 254 258 266 276 281 279 276 274 283 300 307 313 308 306 305 300 304 294 291 285 285 290 290 287 291 296 295 293 292 293 292 290
274 277 275 274 275 276 269 263 257 257 263 255 252 257 264 270 269 266 267 278 298 314 310 308 301 301 301 306 298 292 289 290 291 291 290 290 293 295 293 293 294 294 294 293
283 280 277 278 274 276 276 271 261 256 256 255 258 258 259 261 263 265 268 284 305 317 304 293 296 312 320 315 295 296 296 296 296 294 291 290 292 293 294 294 293 293 291 290
295 293 289 288 286 298 309 302 286 268 257 256 259 259 263 271 271 268 275 295 304 309 302 297 314 321 319 306 299 300 299 297 297 295 293 292 292 293 296 299 297 295 294 291
312 315 315 321 323 301 301 312 304 282 265 262 264 267 269 273 278 284 296 308 315 308 299 316 319 314 311 301 301 303 302 299 296 294 295 297 299 297 296 297 298 298 294 292
296 287 283 276 277 292 302 303 299 294 287 286 288 284 280 285 289 296 299 300 310 303 298 311 316 311 303 300 304 304 304 306 308 306 303 303 302 299 299 300 302 302 302 300
280 274 276 278 287 290 282 270 277 293 295 299 303 303 300 303 303 300 299 303 303 306 307 304 304 310 308 309 310 310 310 311 309 306 304 304 300 298 296 298 298 296 299 302
267 255 250 261 276 276 269 260 261 273 278 281 297 305 304 306 308 310 311 310 308 309 315 317 315 313 310 309 311 314 314 313 313 312 308 304 300 298 298 296 296 296 298 297